(144506) = 2004 EY71

Discovered at Socorro on 2004-03-15 by LINEAR.

Orbit

Orbit type: Main Belt

Note: WebGL enabled browser required.

epoch2024-03-31.0
epoch JD2460400.5
perihelion date2021-01-24.30796
perihelion JD2459238.80796
argument of perihelion (°)48.09553
ascending node (°)198.17445
inclination (°)1.18988
eccentricity0.1245075
perihelion distance (AU)2.2193276
Tisserand w.r.t. Jupiter3.4
ΔV w.r.t. Earth (km/sec)9.3
semimajor axis (AU)2.5349476
mean anomaly (°)283.68827
mean daily motion (°/day)0.24420270
aphelion distance (AU)2.851
period (years)4.04
P-vector [x]-0.40247749
P-vector [y]-0.84591849
P-vector [z]-0.34990539
Q-vector [x]0.91540697
Q-vector [y]-0.37461129
Q-vector [z]-0.14729720
absolute magnitude16.75
phase slope0.15
uncertainty0
referenceMPEC 2024-E73
observations used441
oppositions19
arc length (days)8768
first opposition used2000
last opposition used2024
residual rms (arc-secs)0.72
perturbers coarse indicatorM-v
perturbers precise indicator003Ek
first observation date used2000-03-03.0
last observation date used2024-03-05.0
computer nameMPCLINUX
JD of orbit computation2456966.915273
perihelion JD uncertainty (days)1.0914E-04
argument of perihelion uncertainty (°)2.2993E-04
ascending node uncertainty (°)2.2859E-04
inclination uncertainty (°)5.2403E-06
eccentricity uncertainty 3.8241E-08
perihelion distance uncertainty (AU)9.4352E-08
Minimum Orbit Intersection Distances (in AU)
for orbit epoch: 2460400.5, reference: E2024-E73
Mercury1.7551
Venus1.49399
Earth1.20594
Mars0.667
Jupiter2.15903
Saturn6.2089
Uranus15.9106
Neptune27.0044

Observations

455 total observations over interval: 1993 09 09.28413 – 2024 03 05.199721
These data are available for download (format description).

Date (UT) J2000 RA J2000 Dec Magn Location Ref
1993 09 09.28413 22 35 07.10 -07 38 23.3   691 – Steward Observatory, Kitt Peak-Spacewatch MPS 275804
1993 09 09.31731 22 35 05.38 -07 38 34.0 19.9 V 691 – Steward Observatory, Kitt Peak-Spacewatch MPS 275804
1993 09 09.35226 22 35 03.59 -07 38 43.0   691 – Steward Observatory, Kitt Peak-Spacewatch MPS 275804
2000 03 03.34644 11 47 12.30 +00 23 59.7 19.9   704 – Lincoln Laboratory ETS, New Mexico MPS 175541
2000 03 03.36470 11 47 11.34 +00 24 05.6 19.9   704 – Lincoln Laboratory ETS, New Mexico MPS 175541
2000 03 03.37864 11 47 10.58 +00 24 11.9 20.0   704 – Lincoln Laboratory ETS, New Mexico MPS 175541
2000 03 03.39296 11 47 09.92 +00 24 15.8 20.2   704 – Lincoln Laboratory ETS, New Mexico MPS 175541
2000 03 11.31160 11 40 32.58 +01 10 36.0 19.7   704 – Lincoln Laboratory ETS, New Mexico MPS 175541
2000 03 11.32417 11 40 32.00 +01 10 42.1 20.1   704 – Lincoln Laboratory ETS, New Mexico MPS 175541
2000 03 11.33671 11 40 31.27 +01 10 47.0 20.1   704 – Lincoln Laboratory ETS, New Mexico MPS 175541
2000 03 11.35438 11 40 30.35 +01 10 54.5 20.4   704 – Lincoln Laboratory ETS, New Mexico MPS 175541
2000 03 25.24410 11 28 25.69 +02 36 43.5 20.5 V 691 – Steward Observatory, Kitt Peak-Spacewatch MPS 175541
2000 03 25.26504 11 28 24.60 +02 36 51.1 20.1 V 691 – Steward Observatory, Kitt Peak-Spacewatch MPS 175541
2000 03 25.28603 11 28 23.50 +02 36 58.6 19.9 V 691 – Steward Observatory, Kitt Peak-Spacewatch MPS 175541
2001 08 16.28620 22 09 09.43 -09 44 25.9 19.8   704 – Lincoln Laboratory ETS, New Mexico MPS 175541
2001 08 16.29857 22 09 08.76 -09 44 29.5 20.1   704 – Lincoln Laboratory ETS, New Mexico MPS 175541
2001 08 16.32304 22 09 07.41 -09 44 37.5 19.9   704 – Lincoln Laboratory ETS, New Mexico MPS 175541
2001 08 24.23839 22 02 06.26 -10 26 21.2 19.6   644 – Palomar Mountain/NEAT MPS 175541
2001 08 24.24961 22 02 05.68 -10 26 24.5 19.6   644 – Palomar Mountain/NEAT MPS 175541
2001 08 24.26096 22 02 05.04 -10 26 28.2 19.9   644 – Palomar Mountain/NEAT MPS 175541
2002 11 07.39395 04 51 26.12 +21 15 35.1 20.5 R 695 – Kitt Peak MPS 175541
2002 11 07.49174 04 51 21.64 +21 15 24.7   695 – Kitt Peak MPS 175541
2004 02 13.45092 11 37 32.89 +01 14 34.6 20.8 V 291 – LPL/Spacewatch II MPS 155905
2004 02 13.47379 11 37 32.11 +01 14 39.3 21.0 V 291 – LPL/Spacewatch II MPS 155905
2004 02 13.49669 11 37 31.37 +01 14 44.1 20.4 V 291 – LPL/Spacewatch II MPS 155905
2004 02 26.32919 11 29 02.16 +02 12 07.1 19.7   704 – Lincoln Laboratory ETS, New Mexico MPS 155905
2004 02 26.34025 11 29 01.57 +02 12 09.1 19.9   704 – Lincoln Laboratory ETS, New Mexico MPS 155905
2004 02 26.35132 11 29 01.01 +02 12 12.9 19.5   704 – Lincoln Laboratory ETS, New Mexico MPS 155905
2004 02 26.36244 11 29 00.45 +02 12 16.4 19.4   704 – Lincoln Laboratory ETS, New Mexico MPS 155905
2004 02 26.37350 11 28 59.90 +02 12 20.1 19.5   704 – Lincoln Laboratory ETS, New Mexico MPS 155905
2004 03 15.30863 11 13 32.31 +03 58 47.7 19.6   704 – Lincoln Laboratory ETS, New Mexico MPS 103234
2004 03 15.31936 11 13 31.75 +03 58 52.3 19.6   704 – Lincoln Laboratory ETS, New Mexico MPS 103234
2004 03 15.33017 11 13 31.16 +03 58 56.0 20.1   704 – Lincoln Laboratory ETS, New Mexico MPS 103234
2004 03 15.34091 11 13 30.61 +03 58 59.8 20.1   704 – Lincoln Laboratory ETS, New Mexico MPS 103234
2004 03 15.35192 11 13 30.02 +03 59 04.2 19.9   704 – Lincoln Laboratory ETS, New Mexico MPS 103234
2004 03 18.28878 11 10 56.74 +04 16 56.3 19.1   704 – Lincoln Laboratory ETS, New Mexico MPS 103234
2004 03 18.30010 11 10 56.06 +04 17 00.3 19.6   704 – Lincoln Laboratory ETS, New Mexico MPS 103234
2004 03 18.31193 11 10 55.41 +04 17 05.0 19.9   704 – Lincoln Laboratory ETS, New Mexico MPS 103234
2004 03 18.32349 11 10 54.78 +04 17 08.3 20.2   704 – Lincoln Laboratory ETS, New Mexico MPS 103234
2004 03 18.33511 11 10 54.25 +04 17 12.2 19.8   704 – Lincoln Laboratory ETS, New Mexico MPS 103234
2004 03 27.29183 11 03 41.91 +05 08 15.3 20.1   704 – Lincoln Laboratory ETS, New Mexico MPS 103911
2004 03 27.30239 11 03 41.41 +05 08 18.2 20.3   704 – Lincoln Laboratory ETS, New Mexico MPS 103911
2004 03 27.32323 11 03 40.44 +05 08 23.6 20.6   704 – Lincoln Laboratory ETS, New Mexico MPS 103911
2004 03 28.13084 11 03 05.53 +05 12 38.3 20.0 V 691 – Steward Observatory, Kitt Peak-Spacewatch MPS 103911
2004 03 28.16166 11 03 04.14 +05 12 47.8 19.9 V 691 – Steward Observatory, Kitt Peak-Spacewatch MPS 103911
2004 03 28.18870 11 03 02.94 +05 12 56.4 20.1 V 691 – Steward Observatory, Kitt Peak-Spacewatch MPS 103911
2005 08 27.27991 21 33 28.47 -12 51 09.8 19.8   644 – Palomar Mountain/NEAT MPS 178459
2005 08 27.30500 21 33 27.19 -12 51 16.9 20.3   644 – Palomar Mountain/NEAT MPS 178459
2005 08 27.34427 21 33 25.21 -12 51 27.6 19.6   644 – Palomar Mountain/NEAT MPS 178459
2006 10 28.33202 04 40 19.70 +21 03 34.2 20.6 V G96 – Mt. Lemmon Survey MPS 185444
2006 10 28.34233 04 40 19.38 +21 03 33.0 21.0 V G96 – Mt. Lemmon Survey MPS 185444
2006 10 28.35259 04 40 19.02 +21 03 31.8 20.7 V G96 – Mt. Lemmon Survey MPS 185444
2006 10 28.36292 04 40 18.62 +21 03 30.6 21.4 V G96 – Mt. Lemmon Survey MPS 185444
2006 11 11.36571 04 30 01.65 +20 35 38.3 20.3 V G96 – Mt. Lemmon Survey MPS 186982
2006 11 11.37043 04 30 01.36 +20 35 37.2 21.2 V G96 – Mt. Lemmon Survey MPS 186982
2006 11 11.37527 04 30 01.11 +20 35 37.1 20.5 V G96 – Mt. Lemmon Survey MPS 186982
2006 11 11.38001 04 30 00.90 +20 35 36.2 20.3 V G96 – Mt. Lemmon Survey MPS 186982
2006 11 15.34681 04 26 25.07 +20 25 59.6 21.3 V 691 – Steward Observatory, Kitt Peak-Spacewatch MPS 186982
2006 11 15.36425 04 26 24.06 +20 25 57.2 21.1 V 691 – Steward Observatory, Kitt Peak-Spacewatch MPS 186982
2006 11 15.38162 04 26 23.01 +20 25 54.4 20.8 V 691 – Steward Observatory, Kitt Peak-Spacewatch MPS 186982
2006 11 23.22656 04 18 43.74 +20 05 10.6 20.9 V 691 – Steward Observatory, Kitt Peak-Spacewatch MPS 188663
2006 11 23.24388 04 18 42.67 +20 05 07.6 20.8 V 691 – Steward Observatory, Kitt Peak-Spacewatch MPS 188663
2006 11 23.26113 04 18 41.60 +20 05 04.9 21.1 V 691 – Steward Observatory, Kitt Peak-Spacewatch MPS 188663
2006 11 24.32429 04 17 37.21 +20 02 08.4 20.1 V G96 – Mt. Lemmon Survey MPS 190472
2006 11 24.33188 04 17 36.78 +20 02 07.1 20.1 V G96 – Mt. Lemmon Survey MPS 190472
2006 11 24.33937 04 17 36.31 +20 02 05.6 20.0 V G96 – Mt. Lemmon Survey MPS 190472
2006 11 24.34683 04 17 35.84 +20 02 04.7 20.1 V G96 – Mt. Lemmon Survey MPS 190472
2006 12 16.26355 03 56 41.28 +19 02 27.5 20.6 V G96 – Mt. Lemmon Survey MPS 195388
2006 12 16.26804 03 56 41.02 +19 02 26.3 20.4 V G96 – Mt. Lemmon Survey MPS 195388
2006 12 16.27252 03 56 40.84 +19 02 25.8 20.8 V G96 – Mt. Lemmon Survey MPS 195388
2006 12 16.27703 03 56 40.63 +19 02 25.8 20.9 V G96 – Mt. Lemmon Survey MPS 195388
2007 12 16.48252 11 09 57.92 +04 10 59.9 21.4 V G96 – Mt. Lemmon Survey MPS 232481
2007 12 16.48923 11 09 58.24 +04 10 58.3 21.9 V G96 – Mt. Lemmon Survey MPS 232481
2007 12 16.49596 11 09 58.53 +04 10 56.6 21.7 V G96 – Mt. Lemmon Survey MPS 232481
2007 12 16.50272 11 09 58.78 +04 10 54.4 22.3 V G96 – Mt. Lemmon Survey MPS 232481
2008 02 24.38533 11 06 39.83 +04 26 22.8   691 – Steward Observatory, Kitt Peak-Spacewatch MPS 240489
2008 02 24.40290 11 06 38.94 +04 26 28.6   691 – Steward Observatory, Kitt Peak-Spacewatch MPS 240489
2008 02 24.42048 11 06 38.03 +04 26 34.4   691 – Steward Observatory, Kitt Peak-Spacewatch MPS 240489
2008 02 29.71447 11 02 03.48 +04 56 57.6 19.3 R D29 – Purple Mountain Observatory, XuYi Station MPS 241841
2008 02 29.73110 11 02 02.57 +04 57 04.4 19.1 R D29 – Purple Mountain Observatory, XuYi Station MPS 241841
2008 02 29.74698 11 02 01.73 +04 57 09.7 19.2 R D29 – Purple Mountain Observatory, XuYi Station MPS 241841
2008 02 29.76226 11 02 00.88 +04 57 15.3 19.3 R D29 – Purple Mountain Observatory, XuYi Station MPS 241841
2008 03 02.25744 11 00 41.22 +05 06 08.6 20.1 V 703 – Catalina Sky Survey MPS 241842
2008 03 02.26565 11 00 40.71 +05 06 13.6 19.5 V 703 – Catalina Sky Survey MPS 241842
2008 03 02.27389 11 00 40.32 +05 06 15.4 20.0 V 703 – Catalina Sky Survey MPS 241842
2008 03 02.28210 11 00 39.88 +05 06 17.8 19.3 V 703 – Catalina Sky Survey MPS 241842
